CZ-6A DEB, 60668

Orbit data source: Space-Track

CZ-6A DEB, 60668 is space debris in LEO originally from a launch on Tue, 06 Aug 2024 UTC launched from the Taiyaun Space Center, China (TSC). Debris objects in space refer to the collection of defunct objects orbiting the Earth. Examples of debris include non-operational satellites, rocket bodies, and fragments generated from explosions, collisions, or faulty payload assembly.

Loading next visibility...
Identifier
60668, 2024-140BV
Orbit
LEO
Country
Flag of CNCN / PRC
Related business
Manufacturer
SAST
Mission
Spacecraft
Bus & Motor
Unknown
Mass
Unknown
Launch date (UTC)
2024-08-06 (1 year ago)
Launch vehicle
Unknown
Launch site
Taiyaun Space Center, China (TSC)
Object type
Payload
Rocket body
Debris
Shape & HBR
Unknown shape, 0.4 m
Radar Cross Section
Medium (>0.1 m² and <1 m²)

Expand to show TLE details & history
Last TLE update: 15 hours ago

TLE from 15 hours ago
0 CZ-6A DEB
1 60668U 24140BV  25342.85441530  .00006192  00000-0  17696-2 0  9992
2 60668  88.9859 293.4254 0079461 149.0778 211.5141 14.43166246 70118
Epoch: 2025-12-08T20:30Z
TLE epoch observation values (Epoch: 2025-12-08T20:30:21.481Z)
Latitude
-0.00001°
Longitude
-92.01158°
Altitude
799.549 km
Speed
7.428 km/s
True Right ascension
19h 33m 42s
True Declination
0° 00' 00"
Sunlit
Object was in daylight at epoch
Visualization orbit readout
Latitude
Unknown
Longitude
Unknown
Altitude
Unknown
Speed
Unknown
Apparent Right ascension
Unknown
Apparent Declination
Unknown
Sunlit
N/A
Visualization observer readout
Local Sidereal Time
10:13:38
Azimuth
Unknown
Elevation
Unknown
Doppler factor
Unknown
Orbital elements
Apogee altitude
801.575 km
Perigee altitude
688.373 km
Semi-major axis
7,123.111 km
Eccentricity
0.00795
Inclination
88.9859°
RAAN
293.4254°
Arg. of periapsis
149.0778°
True anomaly
211.04215°
Mean anomaly
211.5141°
Eccentric anomaly
211.27773°
Mean motion
3.61026 °/min
Orbital period
99.72 mins
BSTAR
0.0017696
Loading maneuver chart data...
Computing Atmospheric mass density...
Loading historical data...
Loading historical data...
Loading historical data...
Loading historical data...
Loading historical data...
Loading historical data...
Loading historical data...

Documentation

Showing up to 5 results
|